Dane County Regional Truax Field Madison US
ICAO: KMSN
IATA: MSN
Category: Large
Scheduled Services: Yes

Elevation: 887 ft
TransAlt. 18000 ft.

Airport Communications:
MADISON APP:120.1
ATIS:124.65
MADISON CLNC DEL:121.62
CTAF:119.3
MADISON DEP:126.85
MADISON GND:121.9
ARNG OPS:40.8
ANG OPS:138.25
GREEN BAY RDO:122.6
MADISON TWR:119.3
UNICOM:122.95

KMSN Zoom In..

If you have problems with the map follow the link
https://www.worldairports.se/pages/airport.php?
ICAO=KMSN

Runways:

(A) RW 03 length 7200 ft width 150 ft
---- / hdg 29

(B) RW 14 length 5846 ft width 150 ft
---- / hdg 136

(C) RW 18 length 9006 ft width 150 ft
ILS 110.10 / hdg 182

(D) RW 21 length 7200 ft width 150 ft
ILS 111.55 / hdg 209

(E) RW 32 length 5846 ft width 150 ft
---- / hdg 316

(F) RW 36 length 9006 ft width 150 ft
ILS 109.90 / hdg 2

Location; KMSN
Day. 20 / Time. 20.53 Zulu
* Altimeter: 29.61
* Temperature: 00° c. 32°f.
* Wind from: 170° Speed 11 kn.
Dewpoint: -01° c.
Visibility: 1 Statute Miles.
Clouds: Overcast 700 ft.
Conditions: Light Snow.Conditions: Mist.

KMSN 202053Z 17011KT 1SM R36/6000VP6000FT -SN BR OVC007 00/M01 A2961 RMK AO2 CIG 005V010 SLP037 P0001 60006 I3000 T00001006 56036


Wind From 170°
Speed 11 kn.

 
 
jpsmedia.com for Web Design worldairports.se 2019   terms of use